Погода в Герлосе

Австрия     47°13′28″N   12°01′55″E
темп.,
°C
ветер,
м/с
пор.,
м/с
влажн.,
%
обл.,
%
осадки,
мм/ч
давл.,
гПа
погр.,
м
22 мая, вс
вс2223:00+9ю1193100 0.1 102159
02:00+7ююз119515 0.1 102017
05:00+7ююз11933 0.0 101917
08:00+11сз11824 0.1 1017183
11:00+15ссз246128 0.6 1015950
14:00+19с494549 0.7 10122324
17:00+15св136998 1.5 1014532
20:00+11ю2286100 2.6 101555
23 мая, пн
пн2323:00+10ююз3386100 0.3 101443
02:00+9ю3386100 0.4 101348
05:00+10ю238494 0.0 101141
08:00+14ю1166100 0.0 1009178
11:00+19с124649 0.3 10071665
14:00+19ююв114698 0.7 10051868
17:00+19ююв2346100 0.3 10022074
20:00+12юв2287100 3.9 100441
24 мая, вт
вт2423:00+10ссв1299100 3.0 100897
02:00+10св1197100 3.9 100845
05:00+9св1196100 0.8 100766
08:00+9с2398100 3.3 1008206
11:00+8ссз2298100 0.8 1009238
14:00+8с239798 1.4 1010308
17:00+7ссв2399100 0.4 1011180
20:00+7ссв2299100 0.8 1011241
25 мая, ср
ср2523:00+7с11100100 0.3 1011240
02:00+7ссз1299100 1.0 1011113
05:00+6ссз22100100 1.4 1012162
08:00+6ссз1199100 2.5 1014136
11:00+6ссз2298100 0.3 1015210
14:00+8с2194100 0.4 1015375
17:00+8с3294100 0.3 1016355
20:00+7с119998 1.4 101880
26 мая, чт
чт2623:00+6зюз119799 0.2 102032
02:00+7зюз019795 0.8 102034
05:00+7сз1198100 0.0 102042
08:00+7с1199100 0.0 1022179
11:00+7с219794 0.2 1023199
14:00+9с329095 0.3 1023453
17:00+10с2179100 0.0 1023648
20:00+9всв118799 0.1 102472